Location: Courçay
(47.2523°N, 0.8761°E)
Time: 03:11:47
(UTC+00:00)

SJ 16-02 - Pass Details

Date: 18 November 2025
Orbit: 585 x 594 km, 75.0° (Epoch: 04 December)

Event Time Altitude Azimuth Distance (km) Brightness Sun altitude
Rises 18:15:36 0° 200° (SSW) 2,823 5.1 -19.8°
Reaches altitude 10° 18:17:48 10° 201° (SSW) 1,926 4.2 -20.1°
Maximum altitude 18:22:06 85° 290° (WNW) 604 1.2 -20.9°
Enters shadow 18:23:58 34° 17° (NNE) 996 2.2 -21.2°
